Weather History for KRZL - June, 2013

Change the Weather History Date:

Wednesday, June 12, 2013

  Actual Average (KVPZ) Record (KVPZ)
Temperature  
Mean Temperature 78 °F 68 °F  
Max Temperature 91 °F 79 °F 90 °F (2008)
Min Temperature 66 °F 58 °F 50 °F (2011)
Degree Days  
Heating Degree Days 0 2  
Month to date heating degree days 30  
Since 1 June heating degree days 30  
Since 1 July heating degree days 6309  
Cooling Degree Days 14 5  
Month to date cooling degree days 47  
Year to date cooling degree days 94  
Since 1 June cooling degree days 47  
Growing Degree Days 28 (Base 50)    
Moisture  
Dew Point 67 °F    
Average Humidity 73    
Maximum Humidity 100    
Minimum Humidity 36    
Precipitation  
Precipitation 1.94 in 0.13 in 1.23 in (2004)
Month to date precipitation 1.61  
Year to date precipitation 14.59  
Sea Level Pressure  
Sea Level Pressure 29.79 in    
Wind  
Wind Speed 5 mph (SSW)    
Max Wind Speed 28 mph    
Max Gust Speed 43 mph    
Visibility 9 miles    
Events Rain , Thunderstorm    
T = Trace of Precipitation, MM = Missing Value Source: NWS Daily Summary

Daily Weather History Graph

Daily Weather History Graph

Search for Another Location

Airport or City:

Trip Planner

Search our weather history database for the weather conditions in past years. The results will help you decide how hot, cold, wet, or windy it might be!

Date:

Astronomy

Jun. 12, 2013 Rise Set
Actual Time 5:16 AM CDT 8:21 PM CDT
Civil Twilight 4:42 AM CDT 8:54 PM CDT
Nautical Twilight 4:00 AM CDT 9:37 PM CDT
Astronomical Twilight 3:09 AM CDT 10:28 PM CDT
Moon 8:56 AM CDT (6/12) 10:55 PM CDT (6/12)
Length of Visible Light 16h 12m
Length of Day
15h 05m
Waxing Crescent, 14% of the Moon is Illuminated
Jun 12
Waxing Crescent
Jun 16
First Quarter
Jun 23
Full
Jun 29
Last Quarter
Jul 8
New

Hourly Weather History & Observations

Time (CDT) Temp. Heat Index Dew Point Humidity Pressure Visibility Wind Dir Wind Speed Gust Speed Precip Events Conditions
12:15 AM 73.4 °F - 68.0 °F 83% 29.87 in 10.0 mi Calm Calm - N/A   Clear
12:35 AM 71.6 °F - 68.0 °F 88% 29.87 in 10.0 mi SSE 4.6 mph - N/A   Clear
12:55 AM 71.6 °F - 68.0 °F 88% 29.87 in 10.0 mi South 3.5 mph - N/A   Clear
1:15 AM 71.6 °F - 68.0 °F 88% 29.85 in 10.0 mi South 8.1 mph - N/A   Clear
1:35 AM 71.6 °F - 68.0 °F 88% 29.84 in 10.0 mi South 9.2 mph - N/A   Clear
1:55 AM 71.6 °F - 68.0 °F 88% 29.86 in 10.0 mi Calm Calm - N/A   Clear
2:15 AM 69.8 °F - 68.0 °F 94% 29.87 in 10.0 mi North 5.8 mph - N/A   Clear
2:35 AM 69.8 °F - 68.0 °F 94% 29.87 in 10.0 mi Calm Calm - N/A   Clear
2:55 AM 68.0 °F - 66.2 °F 94% 29.87 in 7.0 mi Calm Calm - N/A   Clear
3:15 AM 68.0 °F - 66.2 °F 94% 29.87 in 5.0 mi Calm Calm - N/A   Clear
3:35 AM 69.8 °F - 68.0 °F 94% 29.88 in 7.0 mi Calm Calm - N/A   Clear
3:55 AM 68.0 °F - 68.0 °F 100% 29.89 in 10.0 mi North 4.6 mph - N/A   Clear
4:15 AM 69.8 °F - 66.2 °F 88% 29.89 in 7.0 mi Calm Calm - N/A   Clear
4:35 AM 68.0 °F - 66.2 °F 94% 29.88 in 5.0 mi Calm Calm - N/A   Clear
4:55 AM 66.2 °F - 64.4 °F 94% 29.89 in 4.0 mi Calm Calm - N/A   Clear
5:15 AM 68.0 °F - 64.4 °F 88% 29.88 in 4.0 mi Calm Calm - N/A   Clear
5:35 AM 66.2 °F - 64.4 °F 94% 29.88 in 2.0 mi Calm Calm - N/A   Clear
5:55 AM 68.0 °F - 66.2 °F 94% 29.87 in 3.0 mi SSE 4.6 mph - N/A   Clear
6:15 AM 68.0 °F - 68.0 °F 100% 29.87 in 4.0 mi South 4.6 mph - N/A   Clear
6:35 AM 69.8 °F - 69.8 °F 100% 29.88 in 7.0 mi Calm Calm - N/A   Clear
6:55 AM 71.6 °F - 69.8 °F 94% 29.90 in 7.0 mi Calm Calm - N/A   Clear
7:15 AM 73.4 °F - 69.8 °F 88% 29.90 in 10.0 mi Calm Calm - N/A   Clear
7:35 AM 73.4 °F - 69.8 °F 88% 29.90 in 10.0 mi SSW 4.6 mph - N/A   Clear
7:55 AM 73.4 °F - 69.8 °F 88% 29.92 in 10.0 mi WSW 3.5 mph - N/A   Clear
8:15 AM 75.2 °F - 69.8 °F 83% 29.91 in 10.0 mi Calm Calm - N/A   Clear
8:35 AM 77.0 °F - 69.8 °F 78% 29.91 in 10.0 mi Calm Calm - N/A   Clear
8:55 AM 78.8 °F - 69.8 °F 74% 29.91 in 10.0 mi SW 4.6 mph - N/A   Clear
9:15 AM 77.0 °F - 69.8 °F 78% 29.90 in 10.0 mi SW 3.5 mph - N/A   Clear
9:35 AM 78.8 °F - 69.8 °F 74% 29.90 in 10.0 mi SW 5.8 mph - N/A   Clear
9:55 AM 78.8 °F - 69.8 °F 74% 29.89 in 10.0 mi Calm Calm - N/A   Clear
10:15 AM 78.8 °F - 69.8 °F 74% 29.88 in 10.0 mi Calm Calm - N/A   Clear
10:35 AM 80.6 °F 84.6 °F 71.6 °F 74% 29.89 in 10.0 mi SSE 3.5 mph - N/A   Clear
10:55 AM 80.6 °F 83.9 °F 69.8 °F 70% 29.88 in 10.0 mi SW 4.6 mph - N/A   Clear
11:15 AM 82.4 °F 86.3 °F 69.8 °F 66% 29.87 in 10.0 mi SW 6.9 mph - N/A   Clear
11:35 AM 82.4 °F 86.3 °F 69.8 °F 66% 29.86 in 10.0 mi SSW 5.8 mph - N/A   Clear
11:55 AM 82.4 °F 86.3 °F 69.8 °F 66% 29.83 in 10.0 mi SSW 5.8 mph - N/A   Clear
12:15 PM 82.4 °F 85.4 °F 68.0 °F 62% 29.80 in 10.0 mi South 6.9 mph - N/A   Clear
12:35 PM 84.2 °F 88.4 °F 69.8 °F 62% 29.76 in 10.0 mi SSE 11.5 mph - N/A   Clear
12:55 PM 86.0 °F 89.4 °F 68.0 °F 55% 29.79 in 10.0 mi South 10.4 mph - N/A   Clear
1:15 PM 86.0 °F 90.4 °F 69.8 °F 58% 29.78 in 10.0 mi South 10.4 mph - N/A   Clear
1:35 PM 87.8 °F 91.4 °F 68.0 °F 52% 29.76 in 10.0 mi South 12.7 mph 20.7 mph N/A   Clear
1:55 PM 87.8 °F 91.4 °F 68.0 °F 52% 29.76 in 10.0 mi South 15.0 mph - N/A   Scattered Clouds
2:15 PM 89.6 °F 93.4 °F 68.0 °F 49% 29.78 in 10.0 mi South 16.1 mph 21.9 mph N/A   Scattered Clouds
2:35 PM 87.8 °F 91.4 °F 68.0 °F 52% 29.78 in 10.0 mi South 12.7 mph - N/A   Mostly Cloudy
2:55 PM 89.6 °F 90.1 °F 62.6 °F 40% 29.77 in 10.0 mi SW 15.0 mph 23.0 mph N/A   Scattered Clouds
3:15 PM 89.6 °F 91.1 °F 64.4 °F 43% 29.77 in 10.0 mi SW 13.8 mph 19.6 mph N/A   Scattered Clouds
3:35 PM 89.6 °F 90.1 °F 62.6 °F 40% 29.77 in 10.0 mi SW 13.8 mph - N/A   Scattered Clouds
3:55 PM 91.4 °F 92.1 °F 62.6 °F 38% 29.76 in 10.0 mi SW 12.7 mph 19.6 mph N/A   Scattered Clouds
4:15 PM 91.4 °F 91.4 °F 60.8 °F 36% 29.75 in 10.0 mi SW 12.7 mph 20.7 mph N/A   Scattered Clouds
4:35 PM 91.4 °F 92.1 °F 62.6 °F 38% 29.73 in 10.0 mi SW 12.7 mph 19.6 mph N/A   Clear
4:55 PM 91.4 °F 92.1 °F 62.6 °F 38% 29.71 in 10.0 mi SSW 13.8 mph - N/A   Scattered Clouds
5:15 PM 89.6 °F 90.1 °F 62.6 °F 40% 29.70 in 10.0 mi SW 10.4 mph - N/A   Mostly Cloudy
5:35 PM 89.6 °F 92.2 °F 66.2 °F 46% 29.70 in 10.0 mi SSE 8.1 mph - N/A   Mostly Cloudy
5:55 PM 87.8 °F 91.4 °F 68.0 °F 52% 29.69 in 10.0 mi SSE 4.6 mph - N/A Thunderstorm Thunderstorm
6:15 PM 87.8 °F 89.4 °F 64.4 °F 46% 29.68 in 10.0 mi South 8.1 mph - N/A   Scattered Clouds
6:35 PM 87.8 °F 89.4 °F 64.4 °F 46% 29.66 in 10.0 mi South 8.1 mph - N/A   Scattered Clouds
6:55 PM 87.8 °F 87.6 °F 60.8 °F 40% 29.65 in 10.0 mi SSW 12.7 mph - N/A   Scattered Clouds
7:15 PM 87.8 °F 87.6 °F 60.8 °F 40% 29.63 in 10.0 mi South 10.4 mph - N/A Thunderstorm Thunderstorm
7:35 PM 84.2 °F 85.6 °F 64.4 °F 51% 29.63 in 10.0 mi SSW 12.7 mph - N/A Rain , Thunderstorm Light Thunderstorms and Rain
7:55 PM 86.0 °F 87.3 °F 64.4 °F 48% 29.62 in 10.0 mi South 15.0 mph 19.6 mph N/A Thunderstorm Mostly Cloudy
8:15 PM 78.8 °F - 64.4 °F 61% 29.61 in 10.0 mi NNE 15.0 mph 24.2 mph N/A Thunderstorm Thunderstorm
8:35 PM 75.2 °F - 68.0 °F 78% 29.61 in 10.0 mi South 5.8 mph - N/A Thunderstorm Thunderstorm
8:55 PM 66.2 °F - 64.4 °F 94% 29.67 in - NW 27.6 mph 42.6 mph 0.69 in Thunderstorm Thunderstorm
9:15 PM 68.0 °F - 64.4 °F 88% 29.71 in 2.5 mi WNW 11.5 mph 25.3 mph 0.25 in Rain , Thunderstorm Heavy Thunderstorms and Rain
9:35 PM 68.0 °F - 64.4 °F 88% 29.66 in 7.0 mi Calm Calm - 0.45 in Rain , Thunderstorm Thunderstorms and Rain
9:55 PM 68.0 °F - 66.2 °F 94% 29.67 in 7.0 mi West 19.6 mph 29.9 mph 0.65 in Rain , Thunderstorm Heavy Thunderstorms and Rain
10:15 PM 69.8 °F - 68.0 °F 94% 29.63 in 1.8 mi WSW 25.3 mph 42.6 mph 0.46 in Rain , Thunderstorm Heavy Thunderstorms and Rain
10:35 PM 75.2 °F - 71.6 °F 89% 29.61 in 7.0 mi WSW 20.7 mph 27.6 mph 0.59 in Rain , Thunderstorm Heavy Thunderstorms and Rain
10:55 PM 75.2 °F - 71.6 °F 89% 29.62 in 10.0 mi WSW 11.5 mph 18.4 mph 0.60 in Rain Light Rain
11:15 PM 69.8 °F - 68.0 °F 94% 29.65 in 10.0 mi North 10.4 mph 20.7 mph N/A   Mostly Cloudy
11:35 PM 68.0 °F - 66.2 °F 94% 29.66 in 10.0 mi North 5.8 mph - N/A   Mostly Cloudy
11:55 PM 68.0 °F - 66.2 °F 94% 29.67 in 10.0 mi NNW 6.9 mph - N/A Rain Light Rain